Location: Dortmund
(51.5019°N, 7.6520°E)
Time: 04:31:51
(UTC+01:00)

ISS - Pass Details

Date: 10 January 2018
Orbit: 401 x 406 km, 51.6° (Epoch: 17 January)

Event Time Altitude Azimuth Distance (km) Brightness Sun altitude
Exits shadow 06:32:42 49° 240° (WSW) 531 -3.6 -17.6°
Maximum altitude 06:33:13 57° 200° (SSW) 484 -3.6 -17.6°
Drops below altitude 10° 06:36:26 10° 121° (ESE) 1,464 0.2 -17.1°
Sets 06:38:32 0° 117° (ESE) 2,323 1.6 -16.8°
